{"data":{"norad_id":68701,"epoch":"2026-09-19T14:00:32.883552Z","epoch_age_seconds":123142,"freshness":"FRESH","line1":"1 68701U 26081C   26262.58371393  .00014610  00000+0  44298-3 0  9997","line2":"2 68701  53.1590 210.2989 0000766  96.8073 263.3017 15.34379352 24471","mean_motion":15.34379352,"eccentricity":7.66e-5,"inclination_deg":53.159,"raan_deg":210.2989,"arg_perigee_deg":96.8073,"mean_anomaly_deg":263.3017,"bstar":0.00044298,"rev_number":2447,"period_min":93.849020981873,"perigee_km":462.24059803927,"apogee_km":463.2886241661,"semimajor_km":6840.9016111027,"source":"CELESTRAK","updated_at":"2026-09-20T09:00:43.956602Z"}}